This demonstration page uses our WeatherBlox Daily Observations layout. Learn more.

Left ArrowRight Arrow

Hourly Observations for April 6, 2020

Temp ( °F °C ) Dew Point ( °F °C ) Humidity (%) Winds ( mph kmh ) Pressure ( in mb ) Visibility ( mi km ) Precip ( " mm )
12:52 am 00:52 Cloudy 51 10.6 44 6.7 77 77 SSE 17 28 29.97 1015 10 16 0.00 0.00
1:52 am 01:52 Cloudy 51 10.6 44 6.7 77 77 SSE 15 24 29.94 1014 10 16 0.00 0.00
2:52 am 02:52 Cloudy 51 10.6 45 7.2 80 80 SSE 13 20 29.92 1013 10 16 0.00 0.00
3:52 am 03:52 Cloudy 51 10.6 45 7.2 80 80 S 15 24 29.89 1012 10 16 0.00 0.00
4:52 am 04:52 Cloudy 51 10.6 46 7.8 83 83 SSE 10 17 29.89 1012 10 16 0.00 0.00
5:40 am 05:40 Cloudy 51 10.6 46 7.8 83 83 SSE 9 15 29.89 1012 10 16 0.00 0.00
5:52 am 05:52 Cloudy 51 10.6 46 7.8 83 83 SSE 8 13 29.88 1012 10 16 0.00 0.00
6:42 am 06:42 Cloudy 51 10.6 47 8.3 86 86 SE 8 13 29.90 1012 10 16 0.00 0.00
6:52 am 06:52 Cloudy 51 10.6 47 8.3 86 86 SE 7 11 29.88 1012 10 16 0.00 0.00
7:18 am 07:18 Cloudy 51 10.6 47 8.3 86 86 SE 9 15 29.90 1012 10 16 0.00 0.00
7:49 am 07:49 Cloudy with Light Rain 52 11 48 9 88 88 SE 8 13 29.90 1012 7 11 0.00 0.00
7:52 am 07:52 Cloudy with Light Rain 51 10.6 49 9.4 92 92 SE 8 13 29.89 1012 6 10 0.00 0.00
8:52 am 08:52 Cloudy with Mist and Fog 52 11.1 50 10 93 93 SSE 12 19 29.88 1012 3 5 0.01 0.25
9:08 am 09:08 Cloudy with Mist and Fog 52 11.1 51 10.6 97 97 SSE 10 17 29.89 1012 3 4 0.00 0.00
9:26 am 09:26 Cloudy with Mist and Fog 52 11.1 51 10.6 97 97 SSE 12 19 29.88 1012 2 3 0.00 0.00
9:38 am 09:38 Cloudy with Mist and Fog 53 11.7 52 11.1 96 96 SSE 13 20 29.87 1012 6 10 0.00 0.00
10:52 am 10:52 Cloudy 56 13.3 54 12.2 93 93 S 10 17 29.85 1011 8 13 0.00 0.00
11:52 am 11:52 Cloudy 59 15 55 12.8 87 87 S 16 26 29.83 1010 8 13 0.00 0.00
12:52 pm 12:52 Cloudy 61 16.1 55 12.8 81 81 S 12 19 29.82 1010 10 16 0.00 0.00
1:52 pm 13:52 Cloudy 64 17.8 55 12.8 73 73 S 14 22 29.79 1009 10 16 0.00 0.00
2:14 pm 14:14 Cloudy 64 17.8 55 12.8 73 73 S 14 22 29.77 1008 10 16 0.00 0.00
2:52 pm 14:52 Mostly Cloudy 66 18.9 56 13.3 70 70 S 13 20 29.78 1008 10 16 0.00 0.00
3:52 pm 15:52 Mostly Cloudy 69 20.6 56 13.3 63 63 SSE 16 26 29.74 1007 10 16 0.00 0.00
4:52 pm 16:52 Mostly Cloudy 69 20.6 55 12.8 61 61 S 14 22 29.72 1007 10 16 0.00 0.00
5:52 pm 17:52 Mostly Cloudy 68 20 56 13.3 65 65 S 18 30 29.72 1007 10 16 0.00 0.00
6:52 pm 18:52 Mostly Cloudy 68 20 56 13.3 65 65 S 13 20 29.73 1007 10 16 0.00 0.00
7:52 pm 19:52 Mostly Sunny 63 17.2 55 12.8 76 76 SE 9 15 29.72 1006 10 16 0.00 0.00
8:52 pm 20:52 Clear 62 16.7 55 12.8 78 78 SE 9 15 29.73 1007 10 16 0.00 0.00
9:52 pm 21:52 Clear 60 15.6 56 13.3 86 86 SE 10 17 29.75 1008 10 16 0.00 0.00
10:52 pm 22:52 Clear 58 14.4 55 12.8 90 90 SE 10 17 29.74 1007 10 16 0.00 0.00
11:52 pm 23:52 Clear 57 13.9 55 12.8 93 93 SSE 8 13 29.72 1006 8 13 0.00 0.00

Powered by AerisWeather